Hauptseite
METAR-TAF:

METAR-TAF

Flughäfen :

Kinloss Barracks

Kinloss, Schottland

Breite: 57-39N, Länge: 003-34W, Höhe: 7 m

Beobachtung

Neuester Wetterbericht von vor 32 Minuten, um 01:50 UTC
Wind 6 kt aus Süd
Temperatur 6°C
Luftfeuchtigkeit 70%
Luftdruck 1032 hPa
Sichtweite 10 km oder mehr

METAR: EGQK 180150Z AUTO 17006KT 9999 NCD 06/01 Q1032

Zeit: 02:22 (02:22 UTC)


TAF: fehlend

Wetterbeobachtungen und Prognosen von mehr als 4000 Flughäfen (METAR und TAF Bericht).

Die verfügbaren Stationen werden durch gelbe und rote Markierungen auf der Karte dargestellt.

Führen Sie die Maus auf sie, um den Namen der Station zu sehen.

Darauf klicken, um die Beobachtung von Wetterbeobachtungen und Prognosen zu sehen.

Um die Karte zu ändern : klicken Sie auf den grünen Tasten mit einem schwarzen Kreuz Zum Vergrößern, auf den grünen Button mit einem Gedankenstrich zu verkleinern, oder auf die grünen Pfeile für benachbarte Karten.


METAR-TAF: